Flag for Poland Weather past 2 weeks in Toruń, Poland

Now
71 °F

Light rain. Overcast.


Feels Like: 75 °F
Forecast: 63 / 90 °F
Wind: 3 mph from Southeast

Location: Torun

Current Time: Aug 1, 2014 at 2:06:34 PM

Latest Report: Aug 1, 2014 at 1:00 PM


Visibility: 19 mi

Pressure: 30.01 "Hg

Humidity: 68%

Dew point: 60 °F

Location of ToruńLocation

Historic Weather in Toruń — Graph

°F

Toruń temperature yesterday

Maximum temperature yesterday: 76 °F (at 2:00 PM)
Minimum temperature yesterday: 66 °F (at 11:00 PM)
Average temperature yesterday: 71 °F

Past Weeks' High & Low Weather Summary

 TemperatureHumidityPressure
High90 °F (Jul 29, 5:00 PM)95% (Jul 26, 8:00 AM)30.17 "Hg (Jul 26, 8:00 AM)
Low58 °F (Jul 19, 4:00 AM)27% (Jul 21, 4:00 PM)29.69 "Hg (Jul 30, 7:00 PM)
Average74 °F62%29.95 "Hg
* Reported Jul 17 12:00 Noon — Aug 1 12:00 Noon, Toruń, Weather by CustomWeather, © 2014

Note: Actual official high and low records may vary slightly from our data, if they occured in-between our weather recording intervals... More about our weather records

Advertising

Toruń weather history for previous 24 hours

 ConditionsComfort  
Time TempWeatherWind HumidityBarometerVisibility
12:00 PM
Aug 1
72 °FOvercast.2 mph59%30.01 "Hg22 mi
11:00 AM72 °FOvercast.2 mph63%30.00 "Hg19 mi
10:00 AM71 °FOvercast.1 mph71%30.01 "Hg19 mi
9:00 AM69 °FOvercast.2 mph75%30.00 "Hg22 mi
8:00 AM66 °FOvercast.2 mph85%29.99 "Hg16 mi
7:00 AM64 °FOvercast.1 mph91%29.99 "Hg10 mi
6:00 AM62 °FOvercast.1 mph92%29.99 "Hg12 mi
5:00 AM61 °FOvercast.No wind89%29.98 "Hg13 mi
4:00 AM61 °FPassing clouds.1 mph87%29.98 "Hg19 mi
3:00 AM62 °FPassing clouds.1 mph81%29.97 "Hg25 mi
2:00 AM64 °FPassing clouds.1 mph81%29.96 "Hg22 mi
1:00 AM65 °FPassing clouds.1 mph83%29.96 "Hg17 mi
12:00 AM65 °FPassing clouds.No wind85%29.96 "Hg19 mi
11:00 PM
Jul 31
66 °FPassing clouds.No wind81%29.95 "Hg19 mi
10:00 PM69 °FOvercast.1 mph74%29.94 "Hg14 mi
9:00 PM71 °FOvercast.1 mph67%29.93 "Hg28 mi
8:00 PM72 °FOvercast.1 mph65%29.92 "Hg31 mi
7:00 PM73 °FOvercast.2 mph56%29.90 "Hg31 mi
6:00 PM74 °FOvercast.3 mph59%29.89 "Hg28 mi
5:00 PM74 °FOvercast.3 mph56%29.89 "Hg28 mi
4:00 PM75 °FOvercast.3 mph54%29.89 "Hg25 mi
3:00 PM76 °FOvercast.3 mph54%29.87 "Hg31 mi
2:00 PM76 °FOvercast.3 mph58%29.87 "Hg28 mi
Weather by CustomWeather, © 2014

See weather overviewHow to use our weather pages